sat.trackr.live / text

‹ back to catalog

STARLINK-36852

NORAD 67933 · 2026-037B

PAYLOAD ACTIVE UNKNOWN

§ Identity

Operator
Country
US
Launch date
2026-02-24
Launch site
AFETR
Launch vehicle
Mass (kg)
RCS (m²)

Purposes: comms

External: N2YO · Heavens-Above · Gunter

§ Orbital elements

Epoch: 2026-09-18T11:54:50.278464Z

Period
94.27 min
Inclination
43.0029°
Eccentricity
0.0000528
Mean motion
15.27590508 rev/d
Perigee alt
482.7 km
Apogee alt
483.4 km
Semi-major
6,861.2 km
B*
7.2548e-4
RAAN
182.2507°
Arg perigee
47.9502°
Mean anomaly
312.1395°
Rev number
3,282

§ Raw data

STARLINK-368521 67933U 26037B   26261.49641526  .00019761  00000+0  72548-3 0  99922 67933  43.0029 182.2507 0000528  47.9502 312.1395 15.27590508 32826

JSON: /api/v1/satellites/67933 · /tle

For live sub-satellite position, see the globe view (requires WebGL).

§ Visibility from observer

Set your observer location to see the next 7 days of passes ≥ 10°. The values pass through the URL so the page stays shareable.

No JS? Fill the form by hand. The geolocation button needs JavaScript.